Tracking 18850 objects as of 22-Nov-2017
HD Live streaming from Space Station
objects crossing your sky now

ELEKTRON 3

Track ELEKTRON 3 now!
10-day predictions
ELEKTRON 3 is classified as:


NORAD ID: 829
Int'l Code: 1964-038A
Perigee: 416.2 km
Apogee: 6,172.4 km
Inclination: 60.8 °
Period: 157.6 minutes
Semi major axis: 9665 km
RCS: 2.8255 m2 (large)
Launch date: July 10, 1964
Source: Commonwealth of Independent States (former USSR) (CIS)
Launch site: TYURATAM MISSILE AND SPACE COMPLEX (TTMTR)
aabbcc
Your satellite tracking list
Your tracking list is empty




NASA's NSSDC Master Catalog

Two Line Element Set (TLE):
1   829U 64038A   17325.05321453 +.00000285 +00000-0 +93193-4 0  9995
2   829 060.8167 175.8507 2977739 238.3973 089.2185 09.13652721728726
Source of the keplerian elements: AFSPC